"Pseudo-MPEC" for FSh1205

Created 2025 Jul 7 21:35:06 UT using Find_Orb

Click here for an explanation of pseudo-MPECs

 
 Astrometry: 
     FSh1205*KB2025 06 20.94556 17 37 14.21 -04 51 30.3    ~6L95 18.7 GXNEOCPM45
     FSh1205 KB2025 06 20.94851 17 37 14.09 -04 51 30.2    ~6L95 18.6 GXNEOCPM45
     FSh1205 KB2025 06 20.95146 17 37 13.99 -04 51 30.8    ~6L95 18.8 GXNEOCPM45

Station data:
(M45) Starhopper Observatory, Sfantu Gheorghe  (N45.865494 E25.768890)
   Romania.  Observer F. Ursache. 0.41-m f/7.5 reflector + CMO.

Orbital elements:  FSh1205
   Perihelion 2024 Jun 22.37869 +/- 703 TT =  9:05:18 (JD 2460483.87869)
Epoch 2025 Jun 21.0 TT = JDT 2460847.5   Ur: 0.2797              AutoNEOCP
M   7.39864754 +/- 59               (J2000 ecliptic)
n   0.02034712 +/- 0.0631           Peri.   16.63029 +/- 90
a  13.2882373 +/- 27.5              Node   156.79807 +/- 46
e   0.8334653 +/- 0.235             Incl.   14.76302 +/- 44
P  48.43966                H 12.99  G  0.15   U 10.9  SR
q 2.21295212 +/- 1.71    Q 24.3635225 +/- 73.1
From 3 observations 2025 June 20 (8.5 min); mean residual 0".13
Residuals in arcseconds: 
250620 M45  .04+  .12-    250620 M45  .10-  .23+    250620 M45  .06+  .12-    

Ephemerides (geocentric):
Date (UTC) HH   RA             Dec           delta  r     elong  mag " sig PA
---- --------  ------------   ------------  ------ ------ -----  --- --------
2025 07 07 22  17 27 54.569   -05 27 15.44  3.3487 4.2624 150.4 19.3 352'  66
2025 07 07 23  17 27 53.394   -05 27 22.28  3.3492 4.2627 150.4 19.3 363'  66
2025 07 08 00  17 27 52.220   -05 27 29.13  3.3497 4.2630 150.3 19.3 373'  67
2025 07 08 01  17 27 51.048   -05 27 35.98  3.3503 4.2633 150.3 19.3 384'  67
2025 07 08 02  17 27 49.877   -05 27 42.84  3.3508 4.2636 150.3 19.3 396'  67
2025 07 08 03  17 27 48.706   -05 27 49.70  3.3513 4.2639 150.2 19.3 408'  68
2025 07 08 04  17 27 47.537   -05 27 56.57  3.3519 4.2642 150.2 19.3 420'  68
2025 07 08 05  17 27 46.370   -05 28 03.45  3.3524 4.2645 150.2 19.3 433'  69
2025 07 08 06  17 27 45.203   -05 28 10.34  3.3530 4.2648 150.1 19.3 446'  69
2025 07 08 07  17 27 44.037   -05 28 17.23  3.3535 4.2650 150.1 19.3 459'  69
2025 07 08 08  17 27 42.873   -05 28 24.13  3.3540 4.2653 150.1 19.3 473'  70
2025 07 08 09  17 27 41.710   -05 28 31.03  3.3546 4.2656 150.0 19.3 487'  70
2025 07 08 10  17 27 40.548   -05 28 37.94  3.3551 4.2659 150.0 19.3 501'  71
2025 07 08 11  17 27 39.387   -05 28 44.86  3.3556 4.2662 150.0 19.3 515'  71
2025 07 08 12  17 27 38.227   -05 28 51.79  3.3562 4.2665 149.9 19.3 530'  72
2025 07 08 13  17 27 37.069   -05 28 58.72  3.3567 4.2668 149.9 19.3 544'  73
2025 07 08 14  17 27 35.911   -05 29 05.66  3.3573 4.2671 149.9 19.3 559'  73
2025 07 08 15  17 27 34.755   -05 29 12.60  3.3578 4.2674 149.8 19.3 574'  74
2025 07 08 16  17 27 33.600   -05 29 19.55  3.3583 4.2677 149.8 19.3 589'  74
2025 07 08 17  17 27 32.447   -05 29 26.51  3.3589 4.2680 149.8 19.3 603'  75
2025 07 08 18  17 27 31.294   -05 29 33.47  3.3594 4.2683 149.7 19.3 618'  76
2025 07 08 19  17 27 30.143   -05 29 40.44  3.3600 4.2686 149.7 19.3 632'  76
2025 07 08 20  17 27 28.992   -05 29 47.42  3.3605 4.2689 149.7 19.3 646'  77
2025 07 08 21  17 27 27.843   -05 29 54.41  3.3611 4.2692 149.6 19.3 660'  78
2025 07 08 22  17 27 26.695   -05 30 01.40  3.3616 4.2695 149.6 19.3 674'  79
2025 07 08 23  17 27 25.549   -05 30 08.39  3.3621 4.2698 149.6 19.3 687'  79
2025 07 09 00  17 27 24.403   -05 30 15.40  3.3627 4.2701 149.5 19.3 700'  80
2025 07 09 01  17 27 23.259   -05 30 22.41  3.3632 4.2704 149.5 19.3 713'  81
2025 07 09 02  17 27 22.116   -05 30 29.43  3.3638 4.2707 149.5 19.3 727'  83
2025 07 09 03  17 27 20.974   -05 30 36.45  3.3643 4.2710 149.4 19.3 741'  85
2025 07 09 04  17 27 19.833   -05 30 43.48  3.3649 4.2713 149.4 19.3 757'  87
2025 07 09 05  17 27 18.694   -05 30 50.52  3.3654 4.2716 149.4 19.3 777'  90
2025 07 09 06  17 27 17.555   -05 30 57.56  3.3660 4.2719 149.3 19.3 808'  94
2025 07 09 07  17 27 16.418   -05 31 04.61  3.3665 4.2722 149.3 19.3 861'  99
2025 07 09 08  17 27 15.282   -05 31 11.66  3.3671 4.2724 149.2 19.3 948' 102
2025 07 09 09  17 27 14.147   -05 31 18.73  3.3676 4.2727 149.2 19.3  18d 103
2025 07 09 10  17 27 13.014   -05 31 25.80  3.3682 4.2730 149.2 19.3  19d 103
2025 07 09 11  17 27 11.881   -05 31 32.87  3.3687 4.2733 149.1 19.3  20d 103
2025 07 09 12  17 27 10.750   -05 31 39.95  3.3693 4.2736 149.1 19.3  21d 102
2025 07 09 13  17 27 09.620   -05 31 47.04  3.3698 4.2739 149.1 19.3  21d 101
2025 07 09 14  17 27 08.491   -05 31 54.14  3.3704 4.2742 149.0 19.3  21d 100
2025 07 09 15  17 27 07.364   -05 32 01.24  3.3709 4.2745 149.0 19.3  22d 100
2025 07 09 16  17 27 06.237   -05 32 08.35  3.3715 4.2748 149.0 19.3  22d  99
2025 07 09 17  17 27 05.112   -05 32 15.46  3.3720 4.2751 148.9 19.3  22d  98
2025 07 09 18  17 27 03.988   -05 32 22.58  3.3726 4.2754 148.9 19.3  22d  98
2025 07 09 19  17 27 02.865   -05 32 29.71  3.3731 4.2757 148.9 19.3  22d  97
2025 07 09 20  17 27 01.744   -05 32 36.84  3.3737 4.2760 148.8 19.3  22d  97
2025 07 09 21  17 27 00.624   -05 32 43.98  3.3742 4.2763 148.8 19.3  22d  96